Location: Krakow
(50.0830°N, 19.9170°E)
Time: 12:55:39
(UTC+01:00)

Vanguard 2 - Pass Details

Date: 13 December 2023
Orbit: 553 x 2919 km, 32.9° (Epoch: 24 February)

Event Time Altitude Azimuth Distance (km) Brightness Sun altitude
Rises 22:45:32 0° 268° (W) 6,768 12.5 -61.4°
Reaches altitude 10° 22:50:52 10° 259° (W) 5,730 11.9 -61.8°
Enters shadow 22:53:37 15° 253° (WSW) 5,222 11.7 -61.9°
